Regional Weather Roundup
Issued by NWS

Home | Current Version | Previous Version | Text Only | Print | Product List | Glossary On
Versions: 1 2 3 4 5 6 7 8 9 10 11 12 13 14 15 16 17 18 19 20 21 22 23 24 25 26 27 28 29 30 31 32 33 34 35 36 37 38 39 40 41 42 43 44 45 46 47 48 49 50
000
ASUS43 KBIS 211910
RWRND

NORTH DAKOTA REGIONAL WEATHER ROUNDUP
NATIONAL WEATHER SERVICE BISMARCK ND
200 PM CDT SUN SEP 21 2014

NOTE: "FAIR" INDICATES FEW OR NO CLOUDS BELOW 12,000 FEET WITH NO
SIGNIFICANT WEATHER AND/OR OBSTRUCTIONS TO VISIBILITY.


NDZ001>003-009>011-017-212000-
NORTHWEST NORTH DAKOTA

CITY           SKY/WX    TMP DP  RH WIND       PRES   REMARKS
WILLISTON      SUNNY     71  39  31 SW8       30.27F
MINOT          SUNNY     69  39  33 W9        30.24F
MINOT AFB      SUNNY     68  42  37 VRB7      30.24F
$$

NDZ018>021-031>035-040>046-212000-
SOUTHWEST NORTH DAKOTA

CITY           SKY/WX    TMP DP  RH WIND       PRES   REMARKS
BISMARCK       SUNNY     72  46  39 W6        30.28F
DICKINSON      SUNNY     69  40  34 W8        30.28F
GARRISON         N/A     69  44  40 W8        30.26F
HETTINGER ARPT SUNNY     68  38  33 SW5       30.31F
$$

NDZ004>008-012>016-024-026-027-054-212000-
NORTHEAST NORTH DAKOTA

CITY           SKY/WX    TMP DP  RH WIND       PRES   REMARKS
GRAND FORKS    PTSUNNY   63  50  62 NW8       30.22F
GRND FRKS AFB  MOSUNNY   63  52  68 N9        30.23S
DEVILS LAKE    PTSUNNY   64  46  52 NW10      30.22F
$$

NDZ022-023-025-028>030-036>039-047>053-212000-
SOUTHEAST NORTH DAKOTA

CITY           SKY/WX    TMP DP  RH WIND       PRES   REMARKS
FARGO          CLOUDY    62  51  67 N7        30.23S
JAMESTOWN      SUNNY     65  49  56 NW10      30.24F
$$



USA.gov is the U.S. government's official web portal to all federal, state and local government web resources and services.